    Observer details:
    033 Karl Schwarzschild Observatory, Tautenburg.  Observers S. Melnikov, C.
        Hoegner, U. Laux, F. Ludwig, B. Stecklum.  Measurer B. Stecklum.  1.34-m
        f/3 Schmidt + CCD.
    104 San Marcello Pistoiese.  Observers P. Bacci, M. Maestripieri.  Measurers
        P. Bacci, L. Tesi, G. Fagioli.  0.60-m reflector + CCD.
    246 Klet Observatory-KLENOT.  Observers M. Tichy, J. Ticha, M. Honkova.
        Measurer M. Tichy.  1.06-m f/2.7 reflector + 2048x2048 CCD.
    595 Farra d'Isonzo.  Observers S. Aschi, E. Pettarin.  Measurer S. Aschi.
        0.40-m f/5.15 reflector + CCD.
    654 Table Mountain Observatory, Wrightwood-PHMC.  Observers P. Choi, N. Saini,
        C. Zhai, R. Trahan, M. Shao.
    703 Catalina Sky Survey.  Observer K. W. Wierzchos.  Measurers E. J.
        Christensen, G. A. Farneth, D. C. Fuls, A. R. Gibbs, A. D. Grauer, H.
        Groeller, R. A. Kowalski, S. M. Larson, G. J. Leonard, T. A. Pruyne, D.
        Rankin, R. L. Seaman, F. C. Shelly, K. W. Wierzchos.  0.68-m Schmidt + 10K
        CCD.
    858 Tebbutt Observatory, Edgewood.  Observer F. B. Zoltowski.  0.51-m Schmidt-
        Cassegrain + CCD.
    A17 Guidestar Observatory, Weinheim.  Observers M. Emmerich, S. Melchert.
        0.36-m f/6 Schmidt-Cassegrain + CCD.
    G96 Mt. Lemmon Survey.  Observer G. J. Leonard.  Measurers E. J. Christensen,
        G. A. Farneth, D. C. Fuls, A. R. Gibbs, A. D. Grauer, H. Groeller, R. A.
        Kowalski, S. M. Larson, G. J. Leonard, T. A. Pruyne, D. Rankin, R. L.
        Seaman, F. C. Shelly, K. W. Wierzchos.  1.5-m reflector + 10K CCD.
    H21 Astronomical Research Observatory, Westfield.  Observer R. Holmes.
        Measurers S. Foglia, L. Buzzi, T. Linder, R. Holmes.  0.76-m f/3.0
        astrograph + CCD.
    I52 Steward Observatory, Mt. Lemmon Station.  Observer R. A. Kowalski.
        Measurers E. J. Christensen, G. A. Farneth, D. C. Fuls, A. R. Gibbs, A. D.
        Grauer, H. Groeller, R. A. Kowalski, S. M. Larson, G. J. Leonard, T. A.
        Pruyne, D. Rankin, R. L. Seaman, F. C. Shelly, K. W. Wierzchos.  1.0-m
        reflector + CCD.
    K61 Rokycany Observatory.  Observer M. Adamovsky.  0.51-m f/6.8 reflector +
        CCD.
    K87 Dettelbach Vineyard Observatory.  Observer B. Haeusler.  0.3-m f/8.0
        Schmidt-Cassegrain + CCD.
    L01 Visnjan Observatory, Tican.  Observers K. Korlevic, D. Pujagic, V. Dobos.
        Measurers D. Pujagic, K. Korlevic.  1.0-m f/2.9 reflector + CCD.
    N88 Xingming Observatory #3, Nanshan.  Observer X. Gao.  Measurer Q.-Z. Ye.
        0.6-m f/8 Ritchey-Chretien + CCD.
    
    Orbital elements:
    2021 EM1                                                 Earth MOID = 0.0574 AU
    Epoch 2020 Dec. 17.0 TT = JDT 2459200.5                 Veres
    M 100.49900              (2000.0)            P               Q
    n   1.14493221     Peri.  171.70434     +0.91843928     +0.38769325
    a   0.9049325      Node   164.74541     -0.37788979     +0.91861238
    e   0.1631318      Incl.   17.36031     -0.11691275     +0.07645414
    P   0.86           H   25.0           G   0.15           U   7
    Residuals in seconds of arc
    210306 G96  0.4+  0.1-    210306 246  0.4-  1.5-    210307 I52  0.1+  0.3+
    210306 G96  0.3-  0.7+    210306 595  0.4+  0.9-    210307 858  0.0   0.3+
    210306 G96  0.6-  0.6+    210306 595  0.2-  0.1-    210307 I52  0.0   0.2-
    210306 G96  0.7+  0.6-    210306 N88  0.5-  0.8+    210307 I52  0.4-  0.4-
    210306 858  0.5+  0.7+    210306 N88  0.4+  0.7+    210307 858  0.1+  0.2+
    210306 H21  0.5-  0.3-    210306 N88  0.3-  0.2+    210307 858  0.1-  0.3+
    210306 858  1.6+  0.4+    210306 595  0.5+  0.5+    210307 654  0.1+  0.0
    210306 H21  0.1-  0.5-    210306 N88  0.6-  0.4+    210307 654  0.1-  0.2-
    210306 H21  0.2-  0.4-    210306 L01  0.1-  0.1-    210307 703  0.1-  1.1+
    210306 H21  0.4-  0.4-    210306 L01  0.0   0.0     210307 703  0.5-  1.5-
    210306 858  1.2+  0.3-    210306 A17  0.1+  0.3-    210307 703  0.2-  0.8-
    210306 I52  0.3-  0.0     210306 L01  0.1+  0.4-    210307 703  0.9+  0.4-
    210306 I52  0.3-  0.0     210306 L01  0.0   0.0     210307 654  0.1-  0.2-
    210306 I52  0.3-  0.2-    210306 L01  0.2-  0.0     210307 033  0.0   0.4+
    210306 I52  0.2+  0.3-    210306 A17  0.1-  0.0     210307 033  0.1-  0.1+
    210306 K61  0.2-  1.4+    210306 A17  0.2+  0.3-    210307 033  0.2+  0.1+
    210306 K61  0.1-  0.7+    210306 K87  0.3-  0.2-    210307 104  0.3+  0.5+
    210306 K61  0.4-  0.7+    210306 K87  0.6-  0.3-    210307 104  0.3-  0.5+
    210306 K61  0.5-  1.0+    210306 033  0.2-  0.1-    210307 104  0.2+  0.5+
    210306 033  0.1+  0.1+    210306 033  0.1-  0.1-    210307 246  0.2-  0.4+
    210306 033  0.2+  0.0     210306 033  0.3-  0.1+    210307 246  0.8+  1.0-
    210306 033  0.1+  0.1-    210307 H21  0.1+  0.2+    210307 246  0.8+  0.2+
    210306 246  0.0   0.7-    210307 H21  0.1-  0.1+    210307 246  0.1+  0.8-
    210306 246  0.2+  0.1-    210307 H21  0.0   0.3+    210307 246  0.6-  0.1+
    210306 246  0.1+  0.2-    210307 I52  0.0   0.0
    
    Ephemeris:
    2021 EM1                 a,e,i = 0.90, 0.16, 17                  q = 0.7573
    Date    TT    R. A. (2000) Decl.     Delta      r    Elong.  Phase     V
    2021 02 05    11 10 28.0 -53 17 39   0.1649  1.0444   106.3    65.0    23.5
    ...
    2021 02 20    10 47 05.4 -39 16 51   0.09634 1.0521   129.1    46.8    21.8
    ...
    2021 02 28    10 25 17.1 -17 22 35   0.06815 1.0523   154.2    24.2    20.4
    ...
    2021 03 06    10 05 20.3 +10 08 31   0.06063 1.0505   164.4    14.8    19.8
    2021 03 07    10 01 48.0 +15 03 56   0.06104 1.0501   160.7    18.2    20.0
    2021 03 08    09 58 13.4 +19 52 31   0.06194 1.0496   156.4    22.2    20.1
    ...
    2021 03 14    09 36 32.3 +43 28 33   0.07576 1.0458   131.4    45.5    21.2
    ...
    2021 03 22    09 09 49.3 +60 28 39   0.1067  1.0383   110.4    64.1    22.5
    ...
    2021 04 06    08 33 16.2 +72 50 04   0.1719  1.0172    90.6    79.6    24.0
    
    M. P. C. Staff               (C) Copyright 2021 MPC           M.P.E.C. 2021-E54
    


    Read MPEC 2021-E53 Read MPEC 2021-E55


    MPEC number:

    Enter an MPEC number in one of the following forms:

    • 1997-B01 (the full form)
    • J97B01 (the packed version of the full form)
    • B01 (the abbreviated form)